Wind_Speed
15 16 16 15 14 13 13 14 15 16 17 18 19 19 19 19 21 22 22 23 23 24 25 26 26 24 22 21 21 21 21 20 20 20 19 19 19 19 19 20 20 20 20 21 22 22 24 25 27 27 28 28 29 29 30 30 30 30 31 31 32 32 32 33 33 33 33 33 33 33 34 34 35 35 36 37 37 37 37 36 36 35 35 35 35 35 35
17 18 19 18 17 16 15 15 16 18 19 21 22 23 23 23 24 24 24 25 25 25 25 25 22 19 18 18 19 20 20 20 19 18 18 18 18 19 20 20 21 21 21 21 21 22 23 24 25 26 27 28 29 29 30 31 31 32 32 32 33 34 34 34 34 34 34 34 34 35 35 36 36 37 38 38 39 39 39 39 38 38 38 37 37 37 37
19 20 21 21 21 20 19 19 20 20 21 22 23 24 25 26 26 26 26 26 24 22 22 20 17 16 16 16 18 18 19 19 19 19 19 19 19 19 20 21 22 22 23 23 22 23 24 25 26 27 28 29 29 30 31 32 33 33 33 34 34 34 35 34 34 34 34 34 35 36 37 37 38 38 39 40 41 41 41 41 41 41 41 40 40 39 39
22 23 24 24 23 23 22 22 23 22 22 23 23 24 26 27 27 26 24 22 19 17 18 17 15 14 15 15 16 18 18 19 19 19 20 20 20 21 22 23 23 24 25 25 24 24 25 26 28 29 30 31 31 32 33 33 34 34 34 34 34 34 34 34 33 33 33 33 34 35 36 37 37 38 38 39 40 42 43 43 44 44 43 43 43 43 42
24 24 25 25 25 25 24 24 24 24 23 24 24 25 26 27 25 23 20 17 15 15 17 17 15 15 16 16 16 17 18 19 20 20 21 22 23 23 24 24 25 26 26 26 26 26 27 28 30 31 32 33 34 34 34 34 34 34 33 34 35 35 34 34 34 34 34 34 34 35 36 37 37 38 39 39 40 41 43 44 45 46 46 46 46 45 45
25 26 26 26 27 26 26 25 25 24 24 25 25 25 24 22 20 18 16 16 15 15 16 16 16 17 18 18 18 18 18 20 21 22 23 24 25 25 25 26 27 27 28 28 28 28 29 30 31 32 34 35 36 36 36 35 35 34 33 33 35 36 36 36 36 36 36 37 37 38 39 39 40 40 41 42 43 44 45 46 47 47 48 48 49 48 48
28 27 27 28 28 28 27 26 25 24 24 24 23 22 20 18 16 16 16 17 16 14 14 16 17 19 20 21 21 21 20 21 22 23 25 26 27 27 27 27 28 29 29 29 29 30 31 31 32 34 36 37 38 38 37 36 35 34 34 33 34 37 38 38 38 38 39 39 40 40 41 42 43 44 45 46 46 47 49 49 50 50 50 51 51 50 50
26 26 26 27 27 26 24 23 22 21 20 19 18 18 18 16 15 16 17 17 16 15 15 17 18 20 22 23 24 23 23 23 23 24 25 27 28 29 30 30 30 31 31 31 31 31 32 33 34 35 37 39 40 40 39 38 37 36 35 34 34 36 37 39 39 40 40 40 41 42 42 43 45 46 48 49 50 50 51 52 53 53 54 54 53 52 51
20 21 21 21 20 20 19 17 16 16 15 15 15 18 19 17 17 18 19 18 18 18 18 18 20 21 23 24 25 25 25 25 26 26 27 29 30 31 32 32 33 33 33 33 33 34 35 36 36 37 38 40 41 43 42 41 39 39 38 38 37 36 37 39 40 41 41 42 42 43 44 44 46 47 48 49 51 52 53 54 55 55 56 57 57 56 54
16 16 16 15 15 18 18 16 14 14 15 15 17 20 20 18 18 20 20 20 20 20 21 21 22 22 23 25 26 27 27 28 30 31 31 32 33 33 34 34 34 35 35 35 36 37 38 39 40 40 41 42 43 45 45 44 43 42 42 41 41 40 40 40 41 41 41 42 43 44 45 46 46 47 49 50 51 52 53 54 56 56 57 58 58 59 58
17 17 16 15 16 19 20 19 16 15 16 17 19 21 22 21 21 21 21 22 22 23 23 24 24 24 25 26 27 28 29 31 32 34 35 35 36 36 37 38 38 38 38 39 39 40 41 42 44 44 45 46 46 47 47 47 47 47 46 46 45 45 44 43 44 44 43 43 43 44 45 46 47 48 50 52 53 53 54 55 56 57 58 58 58 59 60
20 20 18 18 20 21 22 21 19 17 18 20 21 22 23 23 23 23 23 24 25 25 25 26 26 26 27 28 29 30 31 32 34 36 36 37 37 39 40 41 42 42 42 43 43 44 44 45 46 47 48 49 49 50 50 51 51 51 51 51 51 50 49 48 48 48 47 47 46 47 47 48 48 49 51 53 54 56 56 57 58 59 60 60 60 59 60
23 23 22 22 24 26 25 22 21 20 22 23 24 24 25 26 26 25 26 27 28 28 28 29 29 29 30 31 32 33 33 34 36 37 38 39 39 40 41 43 44 44 45 45 45 46 47 47 49 50 51 52 53 53 54 54 54 54 55 55 55 55 54 53 52 52 51 51 51 51 51 50 51 52 54 55 56 58 59 59 60 61 61 62 62 62 61
26 26 26 25 28 30 28 24 23 24 25 26 26 26 26 27 28 28 29 30 31 32 32 33 33 33 34 35 36 36 37 38 39 40 41 42 42 43 44 45 45 46 47 47 47 47 48 49 51 52 53 54 55 55 56 56 56 57 57 58 58 57 57 56 56 56 55 54 54 54 54 54 54 55 57 58 59 60 61 62 63 63 63 63 63 63 63
28 29 28 28 30 32 31 29 27 27 27 28 29 29 29 30 30 31 32 32 33 34 35 36 36 37 37 38 39 40 40 41 42 43 44 45 46 47 47 48 49 50 50 50 50 50 51 52 53 53 54 55 56 57 58 58 59 59 59 59 59 59 59 59 59 58 57 57 57 57 57 57 57 58 60 62 62 63 64 65 66 66 65 65 64 64 65
29 29 29 29 30 32 33 33 32 31 30 31 32 33 33 33 33 33 34 35 35 36 37 38 39 40 41 41 42 43 43 44 45 47 48 49 50 51 52 53 54 54 54 55 55 55 55 56 56 56 56 57 58 59 60 60 61 61 61 60 60 60 60 60 60 59 59 58 59 59 58 58 59 61 62 64 66 67 67 68 69 68 67 66 65 65 65
30 30 31 31 32 33 34 35 35 35 34 34 35 36 36 36 36 37 37 38 38 38 39 40 41 42 43 44 45 46 47 48 49 50 52 53 54 55 56 57 57 58 58 58 58 58 58 58 58 59 59 59 60 61 62 62 63 63 62 62 62 61 61 60 60 60 60 60 60 61 60 60 60 62 64 65 67 69 70 71 71 70 68 67 67 67 66
33 33 33 34 35 36 36 37 38 38 38 38 39 39 40 40 41 41 41 42 42 42 43 43 44 45 46 48 49 50 51 52 53 54 55 56 57 57 58 58 59 59 59 59 59 59 60 60 61 62 63 63 64 64 64 64 65 65 65 64 64 64 63 62 61 61 60 61 62 62 62 62 63 64 65 67 69 71 72 73 72 71 69 68 68 67 66
36 36 36 37 38 38 39 40 40 41 41 42 42 43 43 44 44 45 46 46 47 47 47 48 49 50 51 51 52 53 55 56 56 57 58 58 59 59 60 60 60 61 61 61 62 62 63 64 65 66 67 68 68 68 67 67 67 67 67 67 66 65 65 64 64 64 63 63 64 65 65 66 66 67 68 69 72 74 75 75 74 73 71 70 69 67 64
40 39 39 40 41 41 42 42 43 43 44 45 45 45 45 46 47 48 49 49 50 50 51 52 52 53 53 54 55 56 57 57 58 59 60 61 61 62 63 63 64 64 64 65 65 66 67 67 68 69 70 71 71 71 70 70 69 69 70 70 69 68 67 66 67 68 69 69 68 68 69 69 70 71 72 73 75 76 76 76 76 75 74 72 69 66 63
44 43 42 42 43 44 44 44 45 45 46 47 47 47 47 48 49 49 50 50 51 51 52 53 54 54 55 56 56 57 58 59 60 61 62 63 64 65 66 66 66 67 67 68 68 69 69 70 71 72 72 73 73 73 73 72 72 71 72 72 72 71 71 70 71 72 74 74 73 73 72 72 73 74 76 77 77 78 79 79 78 76 74 72 69 65 62
48 47 45 45 46 46 47 47 47 48 48 49 50 50 50 50 51 51 52 52 53 53 54 54 55 56 56 57 58 59 60 61 63 64 65 66 67 67 68 68 69 69 70 70 70 71 71 72 73 74 75 76 76 76 75 75 75 74 74 75 75 75 76 76 76 76 76 76 77 77 76 76 77 77 78 79 79 80 81 81 79 77 73 70 67 64 63
52 50 49 49 49 50 51 52 52 52 53 53 54 54 54 55 55 55 55 55 56 56 57 57 58 58 59 59 60 61 62 64 65 66 67 68 69 69 70 70 71 71 71 72 72 73 74 76 77 78 79 79 79 79 79 78 78 78 78 78 79 80 80 80 80 80 79 79 80 80 80 80 80 80 80 80 80 81 82 80 79 77 74 69 66 65 65
56 55 54 54 54 55 56 57 58 58 58 59 59 60 60 60 60 60 60 59 59 60 60 60 61 62 62 63 63 64 65 67 68 69 70 71 71 72 73 73 73 73 74 75 76 77 78 80 81 82 83 83 83 82 81 81 80 80 81 81 82 83 83 83 83 83 83 83 83 84 84 83 82 81 81 80 80 81 81 78 75 74 73 70 68 68 68
62 61 61 60 60 60 61 61 62 63 63 63 64 64 65 65 65 65 65 64 64 64 64 65 65 66 66 67 67 68 69 70 72 73 74 74 75 75 76 76 77 77 78 79 80 81 82 83 84 85 85 86 85 84 83 83 83 83 83 84 84 85 85 85 86 86 86 86 86 86 85 84 83 82 81 79 77 77 77 75 73 71 70 70 70 70 71
67 66 66 65 65 65 65 65 65 66 67 67 68 68 69 69 70 69 69 69 69 69 69 69 69 70 70 71 72 73 74 74 76 77 77 77 78 79 79 80 80 81 82 83 84 85 86 86 87 87 87 87 87 86 86 86 86 86 86 86 86 86 86 87 87 88 88 88 88 87 86 84 83 82 80 78 75 73 72 72 71 71 71 70 71 72 74
71 71 70 69 69 69 69 69 69 70 70 71 72 72 73 73 74 74 73 73 73 73 73 73 73 74 74 75 76 77 78 79 80 81 81 81 82 82 82 83 84 85 86 87 88 88 89 89 89 89 89 89 89 89 89 88 88 88 88 88 88 88 88 89 89 89 89 89 88 86 85 84 82 81 79 76 74 71 69 69 69 71 72 72 72 74 75
75 75 74 73 73 73 73 73 73 74 74 75 76 77 77 77 78 78 78 77 77 77 76 77 77 78 79 79 80 81 82 83 84 84 84 85 85 86 86 87 88 89 90 91 92 92 92 92 92 91 91 91 91 91 91 91 91 91 91 91 92 92 91 90 90 89 88 87 86 84 83 82 80 79 77 75 73 71 69 69 69 70 72 73 74 75 76
78 78 78 77 77 77 77 77 77 78 78 78 79 80 81 81 81 81 81 81 81 81 81 81 81 82 83 84 85 86 87 88 88 88 88 89 89 90 90 91 92 93 93 94 94 94 94 94 94 94 94 94 94 94 93 93 94 94 95 95 95 94 93 92 90 88 86 84 82 81 79 78 77 76 75 74 73 72 71 71 71 71 72 73 75 75 75
82 82 82 82 82 81 81 81 81 81 81 82 82 83 84 84 85 85 85 85 85 85 85 85 85 86 87 89 90 91 92 92 92 92 92 93 93 93 94 94 95 95 96 96 96 96 96 96 96 96 96 96 96 96 96 96 97 97 98 97 97 96 94 92 90 87 84 82 79 77 75 74 74 73 73 73 73 73 73 73 73 73 74 74 75 75 74
86 87 87 87 87 87 86 86 86 85 85 86 86 86 87 88 88 88 88 88 88 88 88 88 89 90 91 93 94 95 95 95 95 95 95 95 96 96 97 97 97 97 97 97 97 97 97 97 97 97 97 97 98 98 98 99 100 100 100 99 97 95 93 90 88 85 82 79 76 74 73 73 72 72 73 73 74 74 75 75 75 76 76 75 75 74 73
89 90 90 90 90 90 90 90 89 89 89 89 90 90 91 91 91 91 92 92 92 91 91 92 92 93 95 96 96 97 97 97 97 97 98 98 99 99 99 99 99 98 98 97 97 97 98 98 98 99 99 100 100 100 101 101 102 101 100 99 96 93 91 88 85 82 80 77 75 73 72 72 73 74 74 75 75 75 76 77 77 77 77 76 75 74 73
93 93 93 93 93 93 93 93 93 93 93 93 93 94 94 94 95 95 95 94 94 94 94 94 95 96 97 98 98 99 99 99 99 100 100 100 101 101 101 101 100 99 99 98 98 99 99 100 100 101 101 102 102 102 102 102 102 101 99 97 94 91 89 86 83 81 79 77 75 74 73 73 74 75 76 76 77 77 78 78 78 78 78 77 76 75 74
96 96 96 96 96 96 96 96 96 96 96 96 96 96 97 97 97 96 96 95 95 95 96 97 98 99 99 100 101 101 102 102 102 102 103 103 103 103 103 102 101 100 100 100 101 101 102 103 104 104 104 104 103 103 102 101 99 98 96 94 92 89 87 85 82 80 79 77 75 75 75 75 75 76 77 78 79 79 80 80 80 79 78 77 76 75 75
97 97 97 97 97 97 97 98 98 98 98 98 98 98 98 98 97 97 96 96 96 97 98 99 100 101 102 103 104 105 105 106 106 106 105 105 104 103 103 102 102 102 103 103 104 105 105 106 106 106 105 104 103 102 100 99 97 95 93 91 89 88 86 84 82 80 79 77 76 76 76 77 77 78 79 79 80 80 80 80 79 78 77 76 76 75 75
100 100 100 99 99 99 100 101 101 101 100 100 100 99 99 98 98 98 98 98 98 99 100 102 103 104 105 105 106 107 107 107 107 107 106 105 105 104 104 104 105 105 106 107 107 108 108 109 108 107 105 104 102 100 98 96 95 93 91 90 88 86 84 83 82 80 79 78 78 78 78 79 79 80 80 80 80 79 78 78 77 77 76 75 75 75 75
103 103 103 103 103 102 103 103 103 103 103 102 101 101 100 101 101 101 101 101 102 102 103 104 105 106 107 107 107 107 107 106 106 106 105 105 105 105 106 107 107 108 109 110 110 111 111 110 109 107 104 102 100 98 97 95 93 92 90 88 87 85 84 83 82 81 81 80 80 80 80 80 80 80 80 79 79 78 77 76 76 76 76 75 75 75 75
106 106 106 106 105 105 105 105 105 105 105 105 104 104 104 104 104 104 103 104 104 105 105 106 106 107 107 107 106 106 105 105 105 106 106 107 107 108 109 110 110 111 111 112 112 112 110 109 107 105 102 100 99 97 95 94 92 91 89 88 86 85 84 83 83 82 82 82 81 81 81 80 80 79 79 78 78 77 76 76 76 76 76 76 76 75 75
109 109 109 108 108 107 106 106 106 106 107 107 107 106 106 105 105 105 105 105 105 106 106 106 106 106 106 105 105 105 105 106 107 108 109 109 110 110 111 112 112 113 113 113 112 110 108 106 104 102 100 98 97 96 94 93 92 90 89 88 86 85 85 84 84 83 83 82 82 81 81 80 80 79 79 78 78 78 77 77 77 77 77 76 75 74 73
111 111 110 109 109 108 107 107 107 107 108 107 107 107 106 106 106 106 106 106 106 106 106 106 106 106 106 107 107 108 108 109 110 111 111 112 112 113 113 114 114 114 113 111 109 107 105 103 101 99 97 96 95 94 93 91 90 89 88 87 87 86 85 85 84 83 83 82 82 81 81 81 81 80 79 79 79 79 79 79 78 77 76 75 74 73 72
111 110 110 109 108 107 107 107 107 107 107 107 107 107 107 107 107 107 107 108 108 108 108 108 108 108 109 110 111 112 112 113 113 113 114 114 114 115 115 114 113 112 110 108 106 104 102 100 98 97 95 94 93 92 91 90 89 88 88 87 86 85 85 84 84 83 83 82 82 82 82 82 82 81 81 80 80 79 79 78 77 76 75 74 73 72 72
109 108 108 107 106 106 106 106 107 107 107 108 108 108 108 108 108 108 108 109 109 109 109 110 110 112 113 114 114 115 115 115 114 114 115 115 114 114 113 112 110 109 107 105 103 101 99 97 96 95 94 93 92 91 90 89 88 87 86 86 85 84 84 83 83 83 83 83 83 83 82 82 82 82 81 80 79 78 77 76 76 75 75 75 74 74 73
106 106 105 105 104 104 104 104 105 105 106 106 107 107 107 107 107 108 109 109 110 111 112 113 114 115 115 115 115 115 114 114 113 113 113 112 111 110 109 108 106 105 103 102 100 98 97 95 94 93 92 91 90 89 88 87 86 86 85 84 83 83 83 83 83 83 83 83 83 83 83 83 83 82 81 79 78 77 76 76 76 76 76 75 75 74 73
106 105 104 103 103 103 103 103 104 104 105 106 107 107 108 108 109 111 111 112 113 113 114 114 114 114 113 112 112 111 110 110 110 109 108 108 107 106 105 103 102 101 100 98 97 96 94 93 92 91 90 89 89 88 87 85 84 84 83 82 82 83 83 83 84 84 84 84 84 83 83 82 81 81 80 79 79 78 77 77 76 75 74 73 72 72 71
107 106 106 105 105 106 106 106 106 107 107 108 108 109 110 110 111 111 111 111 110 110 110 109 109 108 107 107 106 106 105 105 104 104 103 103 102 101 100 99 98 97 96 95 94 93 92 91 90 89 88 88 87 86 84 83 83 82 82 82 83 83 84 84 84 84 84 84 83 82 82 81 80 80 80 80 79 78 77 76 75 73 71 69 68 68 67
104 104 103 103 104 104 104 104 104 104 105 105 106 106 106 106 106 105 105 104 103 103 103 103 102 102 102 101 101 100 100 100 100 99 99 99 98 97 96 96 95 94 93 92 91 90 89 88 88 87 86 85 84 83 83 82 82 82 83 83 84 84 85 85 85 84 83 82 82 81 81 81 81 80 80 79 78 76 75 73 71 70 67 65 64 63 62
98 97 98 98 98 98 98 98 98 99 99 100 100 100 99 99 99 98 98 97 97 97 97 97 97 97 96 96 96 96 95 95 95 95 95 94 94 93 93 92 92 91 90 90 89 88 88 87 86 85 84 83 83 82 82 82 82 83 84 84 84 85 85 84 83 83 82 82 82 82 81 80 79 78 77 76 74 72 71 69 67 65 63 61 59 59 58
93 93 93 93 93 92 93 93 94 94 94 94 94 94 94 93 93 93 92 92 92 92 92 92 92 92 92 92 92 92 92 92 92 91 91 90 90 90 89 89 88 88 88 87 87 86 86 85 84 83 82 82 82 82 82 83 83 84 84 84 84 84 83 83 82 82 82 82 82 81 80 78 77 75 74 72 70 68 66 64 62 61 59 57 56 55 55
89 89 88 87 87 88 88 89 89 89 89 90 90 89 89 88 88 88 88 88 88 88 88 88 87 88 88 88 88 88 88 88 88 88 88 88 87 87 86 86 86 86 85 85 85 84 84 83 82 81 81 81 82 82 83 83 84 84 84 83 82 82 82 82 82 82 81 80 80 78 77 75 73 71 69 67 66 64 63 61 59 57 56 55 54 53 52
84 84 84 83 83 84 84 85 85 85 86 86 85 85 85 85 85 84 85 85 84 84 84 84 84 85 85 85 85 85 85 85 85 85 85 85 85 85 84 85 84 84 84 84 83 83 82 82 81 81 81 81 82 82 83 83 83 83 82 81 81 81 82 81 81 80 79 77 76 74 72 70 68 66 64 63 62 61 60 58 56 55 53 52 51 50 49
80 80 80 80 80 80 81 81 82 82 82 82 82 82 82 82 82 82 81 81 81 81 81 82 82 82 82 82 82 82 82 82 82 82 82 83 83 83 83 83 84 83 83 83 83 82 82 82 82 81 81 82 82 82 82 82 82 81 81 80 80 80 80 80 79 78 76 74 72 69 67 65 63 62 60 59 59 58 57 55 54 52 51 49 48 47 46
77 77 76 77 77 77 78 78 79 79 79 80 80 80 80 79 79 79 79 79 79 79 79 79 79 79 79 79 80 79 79 79 80 81 81 82 82 82 82 82 82 82 82 82 82 82 81 81 81 81 81 81 80 80 80 80 80 80 80 79 79 79 78 77 75 73 72 69 67 65 63 61 60 58 57 56 56 55 54 53 52 51 49 47 45 45 44
Wind_Direction
283 283 283 282 282 284 286 290 292 294 297 299 298 298 298 300 301 303 304 307 308 308 309 308 308 311 316 319 320 320 323 327 330 331 333 336 338 341 343 344 343 344 347 349 348 348 349 349 348 347 344 343 342 342 341 342 342 342 343 343 343 342 342 342 342 341 340 339 338 338 337 336 336 335 335 334 334 334 334 334 334 334 334 335 336 337 336
278 281 284 285 284 284 285 288 290 293 296 298 299 301 303 304 304 306 308 308 308 310 309 307 310 317 323 323 322 323 327 332 334 334 336 340 342 342 342 340 340 342 345 347 348 348 348 348 346 342 340 340 339 339 339 340 341 342 343 343 343 342 342 342 341 341 340 339 339 338 338 338 338 337 337 336 336 335 334 334 334 334 334 334 334 335 335
276 279 282 284 285 286 288 290 292 293 294 296 297 300 302 304 305 306 307 307 308 311 308 307 315 323 323 321 323 326 331 335 335 335 336 338 339 338 337 336 337 340 344 347 348 348 347 345 342 340 338 338 338 338 339 340 340 341 342 342 342 342 342 342 342 342 341 341 341 341 341 341 341 341 340 339 337 336 335 335 334 333 333 332 332 332 332
274 277 280 282 284 285 287 290 291 292 293 294 295 297 299 301 302 303 303 306 310 310 305 308 317 318 316 320 324 328 332 334 333 332 332 333 333 334 333 334 336 341 345 347 348 347 345 343 340 338 337 336 336 337 337 338 338 338 339 339 339 339 339 340 340 341 342 343 343 343 343 344 344 344 343 341 339 337 335 334 333 332 331 330 330 330 329
274 276 278 280 282 283 286 288 290 291 292 292 293 295 297 298 298 299 302 307 310 307 305 310 316 314 314 318 321 326 330 329 329 328 328 329 330 331 333 335 339 343 346 348 347 346 344 341 338 336 335 335 336 336 337 336 335 334 334 333 333 333 334 335 335 337 338 340 341 342 342 344 344 345 344 343 342 340 338 336 334 332 331 329 328 327 326
274 275 277 279 281 283 285 286 289 290 290 291 293 294 294 294 294 298 304 306 308 308 308 311 313 313 314 315 318 323 326 326 326 326 327 328 329 331 335 339 342 344 346 347 346 344 342 339 336 334 333 334 335 336 336 335 333 331 330 329 328 327 329 330 331 332 333 334 336 337 338 339 340 341 341 342 342 342 341 340 338 335 332 329 327 326 324
274 274 276 277 279 281 282 284 287 288 288 291 293 293 291 290 293 299 301 302 307 311 309 309 311 312 313 314 318 322 324 324 324 325 326 327 328 331 336 340 342 343 344 345 344 343 341 338 335 332 332 332 333 333 334 333 332 330 329 327 325 324 324 326 326 328 329 330 331 333 334 334 335 336 337 338 339 339 339 339 338 337 335 332 329 326 324
276 277 276 277 278 279 280 280 282 283 285 287 289 287 286 291 297 298 296 300 306 310 307 307 309 310 311 314 317 320 321 321 321 322 323 324 327 331 335 339 340 340 341 341 340 339 338 337 335 332 331 330 329 330 331 331 330 329 327 325 323 321 321 321 322 324 325 326 328 329 330 331 331 332 332 334 335 336 336 335 335 335 334 333 331 329 325
277 276 276 278 280 280 279 279 281 282 283 285 284 283 286 294 297 294 295 300 303 305 306 306 307 308 311 313 314 317 318 318 317 319 320 323 326 330 333 335 336 336 336 336 336 335 335 336 334 332 330 328 328 328 328 328 326 325 323 321 319 318 317 317 318 320 322 323 325 326 328 329 329 329 329 330 331 333 332 331 331 331 331 331 331 330 327
272 272 274 278 279 279 280 282 282 281 282 284 283 283 289 295 295 294 297 299 300 303 305 306 307 308 309 310 311 313 314 314 315 318 320 323 326 327 329 331 332 332 332 332 332 331 332 332 332 331 331 330 329 329 328 327 324 322 320 318 316 314 313 313 314 316 318 320 322 323 324 326 327 327 327 327 329 330 330 329 327 327 327 328 328 328 327
270 273 276 277 276 276 278 281 279 276 279 282 282 285 292 295 293 294 297 297 299 302 303 305 306 306 305 306 307 309 311 312 314 316 319 322 323 324 326 327 328 329 329 329 329 328 328 329 329 329 329 329 329 328 327 326 325 323 321 320 317 315 312 311 312 313 315 317 318 320 321 323 324 325 325 326 328 329 329 328 326 325 324 325 325 326 325
270 275 278 278 278 277 277 280 281 278 278 281 284 288 291 292 292 293 295 296 298 301 302 303 303 303 303 303 304 307 309 310 311 312 314 317 319 321 323 324 325 326 326 326 326 325 325 325 324 324 325 325 326 325 325 325 325 324 322 321 320 318 315 313 313 313 314 315 316 317 319 320 322 322 323 324 326 328 328 327 325 324 323 323 323 323 323
271 273 275 277 278 277 278 282 285 283 281 283 286 288 289 290 291 293 295 297 299 300 301 302 301 301 302 303 304 306 308 308 308 308 310 313 315 317 319 320 321 321 322 322 321 321 321 320 320 321 321 322 323 323 323 323 323 322 321 320 319 318 316 314 314 313 314 314 315 316 317 318 320 320 321 323 325 326 326 326 325 324 322 322 322 321 320
270 271 273 275 276 278 282 285 284 282 282 283 285 285 287 289 292 294 296 297 299 301 301 301 301 302 302 303 305 306 306 306 306 306 308 311 313 315 315 316 316 316 317 317 316 316 316 316 316 317 318 319 319 319 319 319 319 319 319 319 318 317 316 314 313 313 313 313 313 314 315 316 318 319 319 321 323 324 325 325 325 324 322 320 320 319 318
266 269 273 274 276 280 283 284 281 281 282 283 284 286 287 289 291 293 295 296 298 299 300 300 302 303 303 304 305 305 304 304 304 305 307 309 311 312 312 312 313 313 314 314 314 314 313 313 313 314 315 315 315 315 315 316 316 316 317 317 317 316 314 313 313 312 312 311 311 312 313 315 316 317 317 319 321 322 323 323 323 323 321 319 318 316 315
264 268 271 273 275 278 282 283 282 282 283 284 286 288 288 290 291 293 294 295 296 297 298 300 301 302 302 303 303 303 303 303 304 305 307 308 309 310 311 311 312 312 313 313 313 312 312 312 312 313 313 313 313 313 313 313 314 314 315 315 315 314 313 312 311 310 310 310 310 310 312 313 315 315 315 317 318 319 320 321 321 321 319 317 315 314 313
265 268 271 274 275 277 279 281 282 283 284 285 287 288 289 291 292 292 293 294 295 296 298 299 299 300 301 301 301 302 303 303 304 306 307 307 308 309 310 310 311 311 311 311 311 311 311 311 311 310 311 311 311 311 312 312 312 312 313 313 313 312 312 311 309 309 309 308 308 309 310 312 313 313 313 314 315 316 317 318 319 318 317 315 313 312 310
268 271 274 276 277 278 280 281 282 283 284 285 287 288 290 291 292 292 293 293 294 295 296 296 297 298 299 299 301 302 302 303 304 305 305 306 306 307 307 307 308 308 309 309 309 309 309 309 309 309 309 309 309 310 311 311 311 311 311 311 311 311 311 310 309 308 308 308 308 308 310 311 313 313 313 313 313 314 314 315 316 315 314 313 311 309 308
271 273 275 277 278 279 280 281 282 284 285 286 287 288 290 291 292 292 293 294 294 295 296 296 296 297 298 299 300 301 301 303 304 305 305 305 306 306 306 307 307 308 308 308 308 308 308 308 308 308 309 309 309 310 310 310 310 310 309 310 310 310 309 309 309 309 308 308 308 309 311 312 313 313 313 312 312 312 312 312 313 313 312 310 308 307 306
273 275 276 277 277 278 279 281 282 283 284 285 286 287 288 289 290 291 293 294 295 295 296 297 297 298 299 299 300 301 302 303 304 304 305 305 306 306 307 307 308 308 308 308 308 308 308 308 308 308 308 308 308 309 309 309 309 309 308 309 309 309 309 309 309 309 309 310 310 311 312 312 312 312 312 311 310 310 309 309 310 310 309 308 307 306 304
274 275 276 275 275 276 277 279 280 281 283 283 285 286 287 288 290 291 292 293 294 294 295 296 297 297 298 299 300 301 302 302 303 303 304 305 306 306 307 307 307 307 307 306 306 307 307 307 307 307 307 307 307 307 308 308 308 308 308 308 309 309 309 309 309 309 310 311 311 312 312 311 310 310 309 309 308 307 307 307 307 308 307 306 305 304 303
271 273 274 274 273 274 276 277 279 280 281 282 283 285 286 287 288 289 290 291 292 292 293 294 294 295 296 297 298 299 300 300 301 302 303 304 304 305 305 305 305 305 305 305 305 305 305 305 306 305 305 305 306 306 306 307 307 307 308 308 309 309 309 309 309 309 310 310 310 310 310 309 308 307 307 306 306 305 304 305 306 306 305 304 304 304 304
268 270 271 271 273 274 276 277 277 278 279 281 282 283 284 285 286 287 288 289 290 290 291 292 292 293 294 295 296 297 298 299 300 301 302 302 303 303 303 303 304 304 304 304 304 304 305 305 305 305 304 305 305 306 306 307 307 308 308 308 308 308 308 308 309 309 309 308 308 307 307 306 306 305 304 304 303 303 303 304 305 304 304 304 304 304 303
266 268 268 269 271 273 274 276 277 277 278 280 281 282 283 283 284 285 286 287 288 288 289 290 290 291 292 293 294 296 297 298 300 300 301 301 302 302 302 303 303 303 304 304 304 304 304 304 304 305 305 305 306 306 307 307 307 307 307 307 307 307 308 308 308 307 307 306 305 304 304 304 303 303 302 302 302 302 302 303 303 303 304 305 304 304 303
265 266 267 268 269 270 272 274 276 277 278 279 280 281 282 283 283 284 285 286 286 287 288 288 288 289 290 292 293 295 297 298 299 300 300 300 301 301 302 302 303 303 303 304 304 304 304 304 304 304 304 305 305 306 306 306 306 306 306 306 306 307 306 306 306 305 304 304 303 303 303 302 302 301 301 301 301 301 301 301 301 302 303 303 303 302 302
266 266 267 268 269 270 271 272 274 275 277 278 279 280 281 282 283 284 285 286 286 287 287 288 288 289 290 292 293 295 297 299 299 300 300 300 300 301 301 302 302 303 303 303 303 303 304 304 304 304 304 304 304 304 305 305 305 305 306 306 305 305 305 305 304 303 303 303 302 302 302 301 301 300 300 300 300 300 300 301 301 302 302 302 302 301 301
268 268 269 269 270 271 272 273 274 275 277 278 279 280 281 282 284 285 285 286 286 287 287 288 289 290 291 292 293 295 298 299 300 299 299 300 300 301 301 301 302 302 302 302 303 303 303 303 303 303 303 303 303 304 304 305 305 305 305 305 305 305 305 304 304 303 303 302 302 302 301 301 300 300 300 300 300 300 300 300 301 301 301 301 301 301 301
268 269 270 271 272 273 274 275 276 277 278 279 280 280 281 283 284 285 285 286 286 287 287 288 289 290 291 292 294 296 298 299 299 299 299 299 300 300 300 301 301 302 302 302 303 303 303 303 303 303 303 303 303 304 305 305 305 305 306 306 306 306 305 305 304 303 303 302 301 301 300 300 299 299 299 299 300 300 300 300 300 300 300 300 300 301 300
270 271 271 272 273 274 275 275 276 277 278 279 280 280 281 282 283 284 285 285 286 287 288 289 290 291 292 294 295 297 298 299 298 298 298 299 299 300 300 301 301 302 302 302 303 303 303 303 303 303 303 303 304 304 305 305 306 306 306 306 306 306 306 305 304 303 302 301 300 300 299 299 298 298 299 299 300 300 300 299 299 299 299 299 300 300 300
270 271 272 273 273 274 274 275 276 277 278 278 279 280 281 281 282 283 284 285 286 288 289 290 291 293 294 295 297 297 297 297 297 298 298 298 298 299 300 301 301 302 302 302 302 302 302 302 302 302 303 303 304 304 305 306 306 306 306 306 306 306 305 305 304 303 302 301 300 299 299 298 297 297 297 298 299 299 299 299 299 299 299 299 299 299 298
270 271 272 273 274 274 275 275 276 276 277 278 278 279 279 280 281 283 284 285 286 288 289 291 292 293 294 294 295 295 295 295 296 296 296 297 298 298 299 300 300 301 301 301 301 301 301 301 301 302 303 303 304 305 305 306 306 306 306 306 305 305 305 304 303 303 302 301 300 299 298 297 297 296 297 297 298 298 298 298 299 299 299 298 298 297 296
268 269 270 271 272 273 274 275 275 276 276 277 277 278 279 281 282 283 284 286 287 288 290 291 291 292 292 292 292 292 293 293 294 295 296 296 297 298 298 299 299 299 299 299 299 299 300 300 301 302 303 303 304 304 305 305 306 306 305 305 305 304 304 303 303 302 301 300 299 298 297 297 297 297 297 297 298 298 298 298 298 298 298 297 297 295 294
265 266 267 268 269 271 272 273 274 274 275 276 277 278 280 281 282 283 285 286 287 289 289 290 290 290 290 290 290 291 292 293 293 294 295 296 296 296 297 297 297 297 297 298 298 299 300 301 302 302 303 303 304 304 305 305 305 304 304 304 304 304 303 302 302 301 300 299 298 298 297 297 297 297 298 298 298 298 298 298 298 298 297 296 296 295 294
263 264 265 266 268 269 270 271 272 273 274 275 276 278 279 280 281 283 284 285 286 287 287 287 288 288 288 289 290 290 291 292 293 293 294 294 295 295 295 296 297 297 298 299 300 301 301 302 302 303 303 304 304 304 304 304 304 303 303 303 303 302 302 301 301 300 299 299 298 298 298 298 298 297 298 298 298 298 298 298 297 297 296 296 295 295 294
263 264 265 265 266 267 268 269 270 271 273 274 275 276 278 279 281 282 283 284 284 285 285 286 286 287 287 288 289 290 291 292 292 293 294 294 295 296 296 297 298 299 299 300 301 301 301 302 302 303 303 303 304 304 303 303 303 302 302 302 302 301 301 301 300 300 299 299 299 298 298 298 298 297 297 297 297 297 296 296 296 296 295 295 295 294 294
263 264 265 266 267 268 268 269 270 271 273 274 275 277 278 279 280 281 282 282 283 283 284 284 285 286 287 288 289 290 291 292 293 294 295 295 296 297 297 298 298 299 299 300 300 301 301 302 302 302 303 303 303 303 302 302 302 302 301 301 301 301 301 301 300 300 300 299 299 298 298 298 297 297 297 296 296 295 295 295 295 295 295 294 294 293 293
264 265 266 266 267 268 269 271 272 273 274 275 276 277 278 279 279 280 281 281 282 283 283 284 284 285 287 288 289 290 291 293 293 294 294 295 295 296 296 297 297 298 299 299 300 300 301 301 302 302 303 303 302 302 301 301 301 301 301 301 301 301 301 300 300 299 299 299 298 298 297 297 297 296 296 296 295 295 295 295 295 295 295 294 294 293 292
264 265 265 266 267 268 270 271 272 273 274 275 276 276 277 278 279 280 280 281 282 282 283 284 285 286 288 289 290 291 292 292 292 293 293 293 294 295 295 296 297 297 298 298 299 300 300 300 301 301 302 301 301 301 301 301 301 301 301 301 301 301 300 300 300 299 299 299 298 298 297 297 297 296 296 296 296 296 296 296 296 295 295 295 294 293 293
263 264 265 266 267 268 269 270 271 272 273 274 275 276 277 278 278 279 280 281 282 282 283 285 286 287 288 288 289 290 290 290 291 291 292 292 293 294 294 295 296 297 297 298 298 299 299 300 300 300 300 300 301 301 301 301 301 301 301 301 301 301 300 300 300 299 299 299 299 298 298 297 297 297 297 297 297 297 297 297 297 296 296 295 295 294 293
263 264 265 266 267 268 269 270 271 272 273 274 275 275 276 277 278 279 279 280 281 282 283 284 285 286 286 287 288 288 288 289 289 290 291 292 292 293 294 295 295 296 297 297 297 298 298 299 299 300 300 300 300 301 301 301 301 301 301 301 300 300 300 300 300 299 299 299 299 298 298 298 298 298 299 299 299 299 299 298 298 297 296 296 295 295 294
264 264 265 266 267 268 269 269 270 271 272 273 274 274 275 276 277 278 279 280 280 281 282 283 284 284 285 286 286 287 287 288 288 289 290 291 292 293 293 294 295 295 296 296 297 297 298 298 299 299 299 300 300 300 300 300 300 300 300 300 300 300 300 300 300 300 299 299 299 299 299 299 299 299 299 299 299 299 299 298 298 297 297 296 296 295 295
264 264 265 266 266 267 268 269 270 271 271 272 273 274 275 276 277 277 278 279 280 280 281 282 283 283 284 284 285 286 287 287 288 289 290 291 291 292 293 293 294 294 295 296 296 297 297 298 298 299 299 299 299 299 299 300 300 300 300 300 300 300 300 300 300 299 299 299 299 299 300 300 300 300 300 300 299 299 299 298 298 298 297 297 296 296 295
263 264 265 266 267 267 268 269 270 270 271 272 273 274 275 275 276 277 277 278 279 280 281 281 282 283 283 284 285 286 286 287 288 289 289 290 291 291 292 292 293 294 294 295 296 297 297 298 298 299 299 299 299 299 299 299 299 300 300 300 300 300 300 300 300 300 300 300 300 300 301 301 301 301 301 300 300 300 299 299 298 298 297 297 296 295 294
263 264 265 266 267 267 268 268 269 270 270 271 272 273 274 274 275 276 277 278 279 279 280 281 282 283 283 284 285 286 286 287 288 288 289 289 290 290 291 292 292 293 294 295 295 296 297 297 297 298 298 298 298 299 299 299 300 300 300 300 300 300 300 300 300 300 300 301 301 301 301 301 301 301 301 301 300 300 299 299 298 297 296 296 295 294 293
264 264 265 266 266 267 267 268 269 269 270 271 272 273 273 274 275 276 277 278 279 280 280 281 282 283 283 284 285 285 286 287 287 288 288 289 289 290 291 292 292 293 294 294 295 296 296 297 297 297 298 298 298 299 300 300 301 301 301 301 301 300 300 300 300 301 301 301 301 301 301 301 301 301 301 301 300 300 299 299 298 297 296 296 295 294 293
265 265 266 266 267 267 268 269 269 270 271 271 272 273 273 274 275 276 277 278 279 280 281 281 282 282 283 284 284 285 286 286 287 287 288 288 289 290 291 292 292 293 294 294 295 295 296 296 297 297 298 298 299 300 301 301 301 301 301 301 301 301 301 301 301 301 302 302 302 302 302 302 302 301 301 301 300 300 299 299 298 297 297 296 295 295 294
265 266 266 267 267 268 269 269 270 271 271 272 272 273 274 275 276 277 278 278 279 279 280 280 281 282 283 284 284 285 285 286 286 287 288 289 289 290 291 292 292 293 294 294 295 295 296 296 297 298 299 300 300 301 301 301 301 301 301 301 301 301 301 301 302 302 302 302 302 302 302 302 302 301 301 301 300 300 299 299 298 298 297 297 296 295 294
264 265 265 267 268 269 269 270 270 271 272 272 273 274 275 275 276 277 277 278 278 279 279 280 281 282 283 284 284 285 285 286 287 287 288 289 289 290 291 291 292 293 293 294 294 295 296 297 298 299 300 300 301 301 301 302 302 301 301 301 301 301 302 302 302 302 302 302 302 302 302 302 302 302 302 301 301 300 299 299 298 298 298 297 297 295 295
264 265 266 267 267 268 269 270 271 271 272 273 273 274 275 275 276 277 277 278 279 279 280 281 282 282 283 283 284 285 286 286 287 288 288 289 290 290 291 291 292 292 293 294 295 296 297 298 299 299 300 301 301 302 302 302 301 301 301 301 301 302 302 302 302 302 302 302 303 303 303 303 303 302 302 302 301 300 300 299 299 299 298 298 297 296 295
264 265 266 266 267 268 269 269 270 271 272 273 273 274 275 275 276 277 278 278 279 280 281 281 282 282 283 284 284 285 285 286 287 287 288 289 290 290 291 291 292 293 294 295 296 297 298 299 300 301 301 302 302 302 302 301 300 300 301 301 302 302 302 302 303 303 303 303 303 303 303 303 303 302 302 301 300 300 299 299 299 299 299 298 297 297 296
264 265 266 266 267 268 268 269 270 271 272 273 273 274 275 276 277 277 278 279 279 280 280 281 282 282 283 283 284 284 285 286 287 287 288 289 289 290 291 292 293 294 295 296 297 298 299 300 301 301 302 302 302 301 300 300 300 300 301 302 302 303 303 303 304 304 304 304 304 303 303 303 302 302 301 301 300 299 300 300 300 299 299 299 298 298 297
264 265 266 266 266 267 268 269 270 271 271 272 273 274 275 276 277 277 278 279 279 280 281 281 282 282 283 283 284 285 285 286 287 287 288 289 289 290 291 292 294 295 296 297 298 299 300 301 301 301 301 301 300 300 300 300 300 302 303 303 304 304 304 304 304 304 304 304 303 303 303 303 302 302 301 301 300 300 301 301 300 299 299 300 299 298 297
Height
10729 10729 10729 10729 10729 10729 10729 10729 10728 10728 10727 10727 10726 10725 10725 10724 10724 10723 10722 10721 10719 10718 10716 10714 10713 10712 10711 10709 10707 10705 10704 10703 10702 10700 10699 10697 10696 10694 10692 10691 10689 10688 10686 10684 10682 10680 10677 10675 10672 10670 10668 10666 10664 10661 10659 10657 10655 10653 10650 10648 10645 10643 10641 10638 10636 10634 10632 10630 10628 10626 10624 10622 10620 10617 10615 10613 10611 10609 10607 10605 10603 10601 10599 10596 10594 10592 10590
10727 10727 10726 10726 10727 10727 10727 10727 10727 10726 10725 10724 10723 10722 10722 10721 10720 10719 10719 10717 10716 10715 10713 10711 10710 10710 10709 10707 10705 10703 10702 10701 10700 10699 10697 10696 10694 10692 10691 10690 10688 10687 10685 10683 10682 10680 10677 10675 10673 10671 10668 10666 10663 10661 10658 10656 10653 10651 10649 10646 10644 10641 10639 10636 10634 10632 10630 10627 10625 10623 10621 10619 10617 10615 10613 10611 10609 10606 10604 10602 10600 10598 10596 10594 10592 10589 10587
10725 10725 10724 10724 10724 10724 10725 10725 10724 10724 10723 10723 10721 10720 10719 10718 10717 10717 10716 10714 10713 10712 10710 10709 10709 10708 10707 10705 10704 10702 10701 10700 10699 10697 10696 10694 10693 10692 10690 10689 10687 10685 10684 10682 10681 10679 10677 10674 10672 10670 10668 10665 10663 10660 10657 10654 10652 10650 10647 10645 10642 10640 10637 10635 10632 10630 10628 10625 10623 10621 10619 10617 10615 10613 10611 10608 10606 10603 10601 10599 10597 10595 10592 10590 10588 10586 10584
10723 10723 10722 10722 10722 10722 10722 10722 10722 10721 10721 10720 10719 10718 10717 10715 10715 10714 10713 10712 10711 10710 10708 10707 10707 10706 10705 10704 10702 10701 10700 10699 10697 10696 10694 10693 10692 10691 10689 10687 10685 10684 10683 10681 10679 10678 10676 10673 10671 10668 10666 10664 10661 10659 10656 10653 10651 10648 10646 10643 10641 10639 10636 10634 10632 10629 10627 10624 10622 10619 10617 10615 10613 10611 10608 10606 10604 10601 10598 10596 10593 10591 10589 10586 10584 10582 10580
10721 10720 10720 10719 10719 10719 10719 10719 10719 10719 10718 10718 10717 10715 10714 10713 10712 10711 10711 10710 10709 10708 10706 10706 10705 10704 10703 10702 10701 10700 10699 10697 10696 10694 10693 10692 10690 10689 10687 10685 10684 10682 10681 10679 10678 10676 10674 10671 10669 10667 10664 10662 10660 10657 10655 10652 10650 10647 10645 10642 10639 10637 10635 10633 10630 10628 10625 10623 10621 10618 10616 10613 10611 10608 10606 10603 10601 10598 10595 10592 10590 10587 10585 10582 10580 10578 10575
10717 10717 10717 10717 10716 10716 10716 10716 10716 10716 10715 10715 10714 10712 10711 10710 10709 10709 10708 10708 10707 10707 10705 10704 10703 10702 10701 10700 10699 10698 10697 10695 10694 10692 10691 10689 10688 10686 10685 10684 10682 10681 10679 10678 10676 10673 10671 10669 10667 10665 10662 10660 10658 10655 10653 10651 10648 10646 10644 10641 10638 10635 10632 10630 10628 10625 10622 10620 10618 10615 10613 10610 10608 10605 10602 10600 10597 10594 10591 10588 10586 10583 10580 10578 10575 10573 10571
10713 10714 10714 10713 10713 10713 10713 10713 10713 10712 10712 10711 10710 10709 10708 10707 10707 10707 10706 10705 10705 10705 10704 10702 10701 10700 10698 10697 10697 10696 10695 10693 10692 10690 10688 10687 10685 10684 10683 10682 10681 10679 10677 10675 10673 10671 10669 10667 10665 10662 10660 10657 10655 10653 10651 10649 10647 10645 10642 10640 10636 10632 10629 10627 10624 10622 10619 10616 10614 10611 10609 10606 10603 10601 10598 10595 10592 10589 10586 10583 10581 10578 10576 10573 10570 10568 10565
10710 10710 10710 10710 10710 10709 10709 10709 10709 10709 10709 10709 10708 10706 10705 10705 10705 10705 10704 10703 10703 10703 10702 10701 10699 10698 10696 10695 10694 10693 10692 10691 10689 10688 10686 10685 10683 10682 10681 10680 10678 10676 10675 10673 10671 10670 10668 10665 10663 10660 10657 10654 10652 10651 10649 10647 10644 10642 10640 10637 10634 10631 10627 10624 10622 10619 10616 10613 10611 10608 10605 10602 10599 10596 10593 10590 10588 10585 10582 10579 10576 10573 10570 10568 10565 10563 10560
10707 10707 10707 10707 10707 10706 10705 10706 10707 10706 10706 10706 10705 10704 10703 10703 10703 10702 10701 10701 10701 10700 10699 10698 10697 10695 10693 10692 10691 10690 10689 10687 10686 10685 10684 10682 10681 10679 10678 10676 10675 10674 10672 10670 10669 10667 10665 10663 10661 10658 10656 10653 10650 10648 10646 10644 10642 10639 10637 10634 10632 10629 10626 10622 10619 10616 10614 10611 10608 10604 10602 10599 10596 10593 10590 10587 10584 10581 10578 10575 10571 10568 10565 10562 10559 10556 10554
10704 10704 10704 10705 10704 10703 10702 10703 10704 10704 10704 10703 10702 10701 10700 10701 10700 10699 10699 10698 10697 10697 10696 10695 10694 10692 10691 10689 10688 10686 10685 10684 10682 10681 10680 10679 10678 10676 10675 10674 10672 10671 10669 10668 10666 10664 10662 10660 10659 10656 10654 10651 10648 10645 10643 10641 10639 10637 10635 10632 10630 10627 10623 10620 10617 10614 10611 10609 10605 10602 10599 10596 10593 10590 10587 10584 10581 10578 10575 10571 10568 10564 10561 10558 10554 10550 10547
10701 10702 10702 10702 10702 10701 10700 10701 10702 10702 10702 10701 10700 10698 10698 10698 10697 10696 10696 10695 10694 10694 10693 10692 10691 10689 10688 10687 10685 10683 10682 10680 10679 10677 10676 10675 10673 10672 10671 10670 10669 10668 10666 10664 10662 10660 10658 10656 10654 10652 10649 10647 10644 10641 10639 10637 10635 10633 10631 10629 10626 10623 10620 10617 10613 10610 10608 10605 10602 10599 10596 10593 10590 10587 10583 10580 10577 10574 10571 10568 10564 10560 10557 10554 10551 10547 10542
10698 10699 10699 10699 10698 10697 10697 10698 10699 10699 10699 10698 10697 10696 10695 10695 10694 10694 10693 10692 10691 10691 10690 10689 10688 10686 10685 10683 10682 10680 10679 10677 10676 10674 10673 10672 10670 10669 10667 10666 10664 10663 10661 10659 10658 10656 10654 10652 10650 10647 10645 10643 10640 10637 10634 10632 10629 10627 10625 10622 10620 10618 10615 10612 10608 10605 10602 10600 10597 10594 10591 10589 10586 10583 10579 10575 10572 10569 10566 10563 10560 10556 10551 10548 10546 10543 10539
10695 10695 10696 10696 10695 10693 10694 10695 10696 10696 10695 10694 10693 10693 10692 10691 10690 10690 10689 10688 10687 10687 10686 10685 10684 10683 10681 10680 10678 10677 10676 10674 10672 10671 10669 10668 10667 10666 10664 10662 10660 10659 10657 10655 10654 10652 10650 10648 10645 10643 10640 10637 10635 10632 10629 10627 10624 10621 10619 10616 10614 10611 10609 10606 10603 10600 10597 10594 10591 10588 10585 10583 10580 10577 10573 10570 10567 10563 10560 10557 10554 10550 10546 10542 10539 10536 10533
10691 10691 10692 10692 10691 10689 10690 10692 10692 10692 10691 10691 10690 10690 10689 10688 10687 10686 10685 10684 10683 10682 10681 10680 10679 10678 10677 10676 10674 10673 10672 10670 10669 10667 10665 10664 10663 10662 10660 10659 10657 10655 10654 10652 10650 10648 10646 10643 10641 10638 10634 10632 10629 10627 10624 10622 10619 10617 10614 10611 10608 10605 10603 10600 10597 10594 10591 10587 10584 10581 10578 10575 10573 10570 10566 10563 10560 10557 10554 10551 10547 10544 10540 10536 10533 10530 10526
10687 10687 10688 10688 10687 10685 10685 10687 10687 10688 10687 10687 10686 10685 10685 10685 10684 10682 10682 10681 10680 10678 10677 10676 10674 10674 10672 10671 10670 10669 10668 10666 10665 10663 10662 10661 10659 10658 10657 10655 10653 10651 10649 10647 10645 10643 10641 10638 10636 10634 10631 10628 10625 10622 10620 10617 10615 10612 10610 10607 10604 10601 10598 10594 10591 10588 10585 10582 10578 10575 10571 10568 10565 10562 10558 10554 10551 10549 10546 10543 10540 10536 10532 10529 10526 10523 10519
10684 10684 10684 10684 10683 10682 10681 10681 10682 10683 10683 10683 10682 10681 10680 10680 10680 10679 10678 10677 10676 10675 10673 10672 10670 10669 10668 10667 10665 10664 10663 10661 10660 10658 10657 10656 10654 10653 10651 10649 10647 10645 10643 10640 10638 10636 10634 10632 10630 10628 10626 10623 10620 10618 10615 10613 10610 10608 10605 10603 10600 10597 10594 10590 10587 10583 10580 10576 10572 10569 10565 10562 10558 10554 10550 10546 10542 10539 10537 10535 10532 10529 10525 10521 10519 10516 10512
10680 10680 10680 10680 10679 10679 10678 10677 10677 10677 10677 10677 10677 10676 10675 10675 10675 10674 10673 10672 10671 10670 10669 10668 10666 10665 10663 10662 10660 10659 10658 10656 10655 10653 10652 10650 10648 10647 10645 10643 10641 10639 10637 10635 10632 10630 10628 10626 10623 10622 10620 10618 10616 10613 10610 10607 10604 10602 10599 10597 10594 10591 10588 10585 10582 10578 10574 10570 10566 10562 10559 10556 10552 10548 10544 10539 10535 10531 10529 10527 10524 10521 10517 10513 10510 10508 10505
10675 10676 10675 10675 10674 10674 10673 10673 10672 10672 10672 10672 10671 10671 10670 10670 10669 10668 10668 10667 10666 10665 10664 10663 10662 10660 10659 10657 10656 10654 10653 10651 10650 10648 10647 10645 10643 10642 10640 10638 10636 10634 10632 10630 10627 10625 10622 10620 10617 10614 10613 10611 10609 10607 10604 10601 10598 10594 10592 10590 10587 10584 10580 10577 10574 10572 10569 10565 10561 10556 10552 10549 10546 10542 10538 10533 10529 10525 10522 10519 10516 10513 10510 10506 10502 10499 10496
10669 10670 10670 10670 10669 10669 10668 10668 10667 10667 10667 10666 10666 10665 10665 10664 10663 10662 10661 10661 10660 10659 10658 10657 10656 10655 10654 10652 10651 10649 10647 10645 10644 10642 10641 10639 10637 10635 10634 10632 10630 10628 10626 10623 10621 10619 10616 10613 10610 10607 10604 10601 10599 10597 10595 10593 10590 10586 10583 10581 10579 10576 10573 10569 10565 10563 10560 10558 10554 10549 10545 10541 10538 10534 10531 10527 10522 10517 10514 10510 10507 10505 10502 10499 10495 10492 10488
10663 10664 10665 10664 10664 10663 10663 10663 10662 10662 10661 10661 10660 10660 10659 10659 10658 10657 10656 10655 10654 10653 10652 10651 10650 10649 10647 10646 10644 10643 10641 10640 10638 10636 10634 10632 10630 10628 10626 10624 10622 10620 10618 10616 10613 10611 10608 10605 10602 10598 10595 10592 10589 10587 10585 10583 10581 10577 10574 10571 10569 10567 10564 10561 10557 10553 10550 10548 10545 10541 10537 10532 10528 10525 10522 10518 10514 10509 10505 10502 10498 10496 10493 10489 10486 10483 10480
10656 10657 10658 10658 10658 10657 10657 10657 10657 10657 10656 10655 10655 10654 10654 10653 10653 10652 10651 10650 10649 10648 10647 10645 10644 10642 10641 10640 10638 10637 10635 10633 10631 10629 10628 10625 10623 10621 10619 10617 10615 10613 10610 10608 10605 10603 10600 10597 10594 10590 10587 10584 10581 10579 10576 10574 10571 10569 10565 10561 10558 10556 10553 10551 10549 10545 10540 10536 10533 10530 10527 10524 10520 10516 10513 10509 10505 10499 10495 10492 10490 10487 10483 10479 10476 10474 10471
10649 10650 10652 10651 10651 10650 10651 10651 10651 10651 10650 10649 10648 10648 10648 10648 10647 10646 10645 10645 10643 10642 10641 10640 10638 10637 10636 10634 10632 10631 10629 10627 10625 10623 10621 10619 10617 10615 10613 10610 10608 10606 10603 10600 10598 10595 10592 10589 10586 10583 10579 10576 10573 10571 10568 10565 10562 10559 10556 10553 10549 10546 10543 10540 10538 10535 10531 10526 10522 10518 10516 10514 10511 10508 10504 10500 10495 10489 10484 10481 10479 10476 10474 10470 10466 10463 10460
10642 10643 10644 10645 10644 10644 10643 10644 10644 10644 10643 10642 10642 10641 10641 10641 10640 10640 10639 10639 10638 10636 10635 10634 10632 10630 10629 10627 10626 10624 10623 10621 10619 10617 10615 10612 10610 10608 10605 10603 10600 10598 10595 10593 10590 10587 10584 10581 10577 10574 10570 10567 10564 10561 10559 10556 10553 10549 10547 10543 10539 10536 10533 10529 10526 10523 10520 10516 10512 10508 10505 10503 10501 10498 10495 10491 10486 10478 10472 10471 10467 10462 10460 10459 10456 10452 10450
10634 10635 10636 10637 10637 10637 10636 10636 10636 10636 10636 10636 10635 10634 10634 10633 10633 10633 10632 10632 10631 10630 10628 10626 10624 10623 10621 10620 10618 10617 10616 10614 10612 10610 10607 10605 10602 10600 10597 10594 10592 10589 10586 10584 10581 10578 10574 10571 10567 10563 10559 10556 10554 10551 10549 10546 10543 10540 10537 10534 10530 10526 10522 10518 10514 10511 10508 10505 10501 10497 10494 10492 10490 10487 10485 10482 10476 10468 10461 10460 10458 10452 10447 10445 10442 10440 10438
10626 10627 10628 10629 10630 10630 10629 10629 10628 10628 10627 10627 10627 10626 10625 10625 10625 10625 10624 10624 10623 10622 10620 10618 10616 10615 10613 10612 10610 10609 10608 10606 10604 10601 10599 10596 10594 10591 10588 10585 10583 10580 10577 10574 10571 10568 10565 10561 10558 10554 10549 10546 10543 10541 10539 10536 10533 10530 10527 10523 10520 10515 10511 10507 10503 10499 10496 10493 10489 10486 10483 10480 10477 10475 10473 10471 10468 10461 10453 10448 10446 10443 10439 10435 10432 10429 10426
10617 10618 10619 10620 10621 10621 10621 10621 10621 10620 10619 10618 10619 10618 10617 10616 10616 10616 10615 10615 10614 10613 10611 10609 10607 10606 10605 10603 10601 10600 10599 10598 10595 10592 10589 10587 10585 10582 10579 10576 10573 10570 10567 10564 10561 10558 10554 10551 10548 10544 10540 10536 10533 10531 10529 10526 10523 10520 10516 10513 10509 10506 10502 10498 10493 10489 10484 10481 10477 10473 10470 10467 10464 10463 10461 10459 10457 10453 10447 10440 10435 10431 10428 10425 10422 10418 10414
10608 10608 10609 10611 10612 10611 10611 10612 10612 10611 10610 10609 10609 10609 10608 10607 10607 10607 10606 10606 10605 10604 10603 10600 10598 10597 10596 10594 10592 10590 10589 10588 10586 10583 10579 10577 10574 10572 10569 10566 10563 10560 10556 10553 10550 10547 10544 10540 10536 10533 10530 10526 10523 10520 10518 10515 10512 10508 10505 10502 10498 10494 10491 10486 10482 10477 10473 10468 10464 10461 10457 10454 10451 10449 10447 10445 10443 10441 10438 10433 10428 10422 10417 10414 10411 10407 10402
10598 10598 10599 10601 10601 10601 10601 10602 10601 10601 10601 10600 10599 10599 10598 10598 10598 10597 10597 10596 10596 10595 10594 10591 10589 10587 10586 10584 10583 10581 10579 10577 10575 10572 10569 10566 10564 10561 10558 10556 10552 10549 10545 10541 10538 10535 10531 10527 10524 10520 10517 10514 10511 10508 10505 10502 10499 10495 10492 10488 10484 10481 10477 10473 10469 10465 10461 10457 10453 10448 10444 10441 10438 10435 10433 10432 10430 10428 10426 10423 10419 10415 10409 10404 10400 10396 10391
10589 10588 10589 10590 10591 10591 10591 10591 10591 10591 10591 10590 10589 10589 10588 10588 10587 10587 10587 10586 10586 10585 10584 10582 10580 10577 10575 10574 10573 10571 10569 10566 10564 10561 10558 10555 10552 10549 10547 10544 10541 10538 10534 10529 10525 10522 10518 10515 10511 10507 10504 10502 10499 10496 10493 10489 10486 10482 10478 10474 10470 10466 10463 10459 10455 10451 10448 10444 10441 10437 10433 10430 10426 10423 10420 10418 10416 10414 10412 10410 10407 10404 10401 10396 10391 10386 10382
10579 10578 10578 10578 10579 10580 10580 10581 10581 10581 10581 10580 10580 10578 10577 10577 10577 10576 10576 10576 10576 10575 10574 10572 10570 10567 10565 10563 10561 10559 10556 10554 10552 10549 10546 10543 10540 10538 10536 10533 10530 10526 10522 10518 10513 10509 10506 10503 10499 10496 10493 10489 10486 10483 10480 10476 10472 10468 10464 10460 10457 10453 10449 10445 10441 10437 10434 10431 10428 10425 10421 10418 10415 10412 10409 10406 10404 10401 10399 10397 10394 10391 10389 10385 10381 10377 10373
10568 10567 10567 10567 10567 10568 10569 10569 10570 10571 10570 10570 10569 10568 10567 10567 10566 10566 10566 10566 10565 10564 10563 10562 10560 10558 10556 10553 10550 10548 10545 10543 10540 10538 10535 10532 10530 10528 10525 10523 10519 10515 10511 10507 10502 10498 10495 10491 10488 10485 10482 10478 10474 10470 10467 10463 10458 10454 10450 10446 10443 10439 10436 10432 10428 10424 10421 10418 10415 10412 10408 10405 10402 10400 10397 10395 10393 10390 10387 10384 10381 10378 10376 10372 10369 10365 10363
10557 10556 10556 10556 10555 10556 10557 10558 10558 10558 10558 10558 10557 10557 10556 10556 10556 10555 10555 10554 10554 10553 10553 10551 10550 10548 10545 10543 10540 10537 10534 10531 10529 10527 10524 10522 10519 10516 10514 10511 10508 10504 10501 10496 10492 10488 10485 10481 10477 10473 10470 10466 10461 10458 10454 10450 10445 10440 10436 10432 10429 10425 10422 10418 10414 10411 10407 10405 10402 10399 10396 10393 10390 10387 10385 10382 10380 10377 10374 10371 10368 10365 10362 10359 10355 10352 10349
10546 10545 10545 10546 10546 10546 10546 10546 10546 10545 10544 10544 10545 10545 10545 10545 10544 10544 10543 10543 10543 10543 10542 10540 10538 10536 10533 10530 10528 10525 10522 10520 10518 10516 10514 10511 10508 10504 10501 10498 10495 10492 10488 10484 10480 10476 10473 10469 10465 10461 10457 10453 10449 10445 10441 10437 10433 10428 10423 10419 10415 10412 10408 10404 10401 10398 10395 10392 10389 10387 10384 10381 10378 10375 10372 10369 10367 10364 10361 10358 10354 10351 10347 10344 10341 10338 10335
10535 10534 10534 10536 10537 10537 10536 10534 10533 10533 10533 10534 10534 10534 10533 10533 10534 10534 10534 10534 10533 10532 10531 10529 10526 10523 10520 10517 10515 10513 10511 10509 10508 10506 10503 10500 10496 10492 10488 10484 10481 10477 10473 10470 10466 10463 10459 10456 10452 10448 10444 10440 10436 10432 10428 10424 10420 10416 10411 10407 10403 10399 10395 10392 10389 10386 10383 10380 10377 10374 10371 10369 10366 10363 10360 10357 10354 10350 10347 10343 10340 10337 10334 10331 10327 10324 10321
10522 10522 10523 10525 10526 10526 10524 10523 10522 10523 10523 10524 10524 10524 10524 10524 10525 10525 10525 10524 10523 10522 10519 10516 10513 10510 10507 10505 10503 10501 10499 10498 10496 10493 10489 10486 10482 10477 10473 10469 10465 10462 10458 10455 10453 10450 10446 10442 10438 10434 10431 10427 10423 10419 10415 10411 10407 10403 10399 10395 10390 10386 10383 10379 10376 10373 10371 10368 10365 10362 10359 10356 10353 10350 10346 10343 10340 10337 10334 10331 10327 10324 10321 10318 10315 10311 10307
10509 10510 10511 10512 10513 10514 10513 10512 10511 10513 10514 10514 10515 10516 10516 10515 10515 10514 10514 10513 10512 10510 10507 10503 10500 10497 10495 10493 10491 10488 10486 10484 10481 10477 10473 10469 10466 10462 10459 10455 10452 10449 10445 10442 10439 10437 10433 10428 10424 10420 10417 10413 10409 10405 10401 10397 10393 10389 10386 10382 10378 10374 10371 10367 10364 10361 10358 10355 10352 10349 10346 10343 10340 10336 10333 10329 10326 10323 10321 10318 10314 10311 10308 10305 10302 10299 10296
10499 10500 10500 10500 10501 10503 10502 10501 10501 10503 10503 10504 10505 10506 10505 10504 10503 10502 10502 10501 10500 10497 10493 10490 10487 10485 10483 10481 10479 10476 10474 10471 10467 10462 10458 10455 10452 10449 10446 10443 10440 10437 10434 10430 10427 10424 10420 10415 10410 10406 10403 10399 10395 10391 10387 10384 10380 10376 10373 10369 10365 10362 10359 10355 10352 10348 10345 10342 10339 10336 10333 10329 10326 10323 10319 10315 10312 10310 10307 10305 10301 10298 10294 10291 10288 10286 10283
10486 10486 10487 10488 10490 10492 10492 10491 10491 10491 10491 10491 10492 10493 10492 10491 10490 10490 10490 10488 10486 10483 10480 10477 10475 10473 10471 10469 10466 10463 10461 10458 10453 10449 10445 10443 10440 10437 10434 10431 10428 10426 10423 10419 10415 10411 10407 10403 10399 10395 10391 10387 10382 10378 10374 10370 10366 10363 10360 10356 10353 10349 10346 10342 10339 10335 10331 10328 10324 10321 10318 10315 10312 10308 10305 10302 10299 10296 10294 10291 10288 10284 10280 10277 10273 10271 10268
10472 10473 10476 10477 10479 10481 10481 10481 10481 10480 10479 10479 10479 10479 10479 10478 10478 10477 10476 10474 10472 10469 10467 10465 10463 10461 10458 10456 10453 10451 10448 10445 10441 10437 10433 10431 10428 10425 10422 10418 10416 10413 10410 10406 10402 10398 10395 10391 10387 10383 10379 10375 10370 10365 10361 10357 10353 10349 10346 10343 10340 10336 10333 10329 10325 10321 10318 10314 10310 10307 10303 10300 10297 10294 10291 10288 10285 10281 10278 10275 10273 10269 10266 10262 10259 10256 10253
10459 10462 10465 10466 10468 10469 10470 10470 10470 10469 10468 10467 10467 10466 10465 10465 10465 10464 10463 10461 10458 10456 10455 10454 10452 10449 10446 10443 10441 10438 10435 10432 10428 10425 10422 10419 10416 10413 10409 10406 10403 10400 10397 10393 10389 10386 10382 10378 10375 10371 10367 10363 10359 10354 10350 10345 10341 10337 10333 10330 10327 10323 10319 10315 10312 10308 10304 10301 10297 10293 10290 10286 10282 10279 10277 10274 10271 10267 10263 10260 10257 10254 10250 10247 10244 10241 10239
10446 10449 10453 10456 10457 10458 10458 10458 10457 10456 10455 10455 10454 10453 10452 10452 10452 10451 10450 10447 10445 10444 10443 10442 10439 10437 10434 10430 10427 10425 10422 10419 10416 10413 10410 10406 10403 10400 10396 10393 10389 10386 10383 10380 10376 10373 10370 10366 10362 10358 10354 10351 10347 10342 10338 10334 10330 10326 10322 10318 10315 10311 10307 10302 10298 10294 10290 10286 10283 10279 10276 10273 10269 10266 10263 10260 10257 10253 10250 10246 10243 10239 10236 10233 10230 10228 10225
10434 10436 10439 10442 10445 10446 10446 10446 10444 10443 10442 10441 10440 10440 10440 10440 10440 10438 10436 10433 10432 10431 10430 10428 10426 10423 10420 10417 10413 10411 10408 10406 10403 10400 10396 10393 10389 10386 10383 10380 10376 10373 10370 10366 10363 10360 10357 10354 10350 10346 10342 10338 10334 10330 10326 10322 10318 10315 10311 10307 10303 10299 10294 10290 10285 10281 10277 10273 10269 10266 10262 10259 10255 10252 10249 10246 10243 10240 10236 10233 10229 10225 10222 10219 10216 10214 10211
10421 10424 10426 10429 10432 10433 10434 10433 10432 10431 10430 10429 10428 10428 10428 10427 10426 10423 10421 10420 10420 10418 10416 10414 10411 10408 10405 10402 10400 10397 10395 10392 10390 10387 10383 10380 10377 10374 10370 10367 10363 10360 10357 10354 10350 10347 10344 10341 10337 10333 10330 10326 10322 10318 10314 10311 10307 10303 10299 10295 10291 10286 10281 10277 10272 10268 10264 10260 10256 10252 10249 10245 10241 10238 10235 10232 10229 10226 10222 10219 10216 10212 10209 10205 10202 10199 10196
10408 10412 10415 10417 10418 10419 10420 10420 10419 10418 10417 10416 10415 10415 10415 10414 10411 10409 10408 10408 10407 10404 10401 10399 10397 10394 10391 10389 10386 10384 10382 10379 10376 10373 10370 10367 10364 10361 10358 10355 10351 10348 10345 10341 10338 10335 10332 10329 10325 10321 10318 10314 10310 10306 10303 10300 10296 10292 10287 10283 10278 10273 10268 10264 10259 10255 10251 10247 10243 10239 10236 10232 10228 10225 10221 10218 10215 10211 10208 10205 10202 10199 10196 10193 10189 10185 10182
10396 10399 10402 10404 10404 10405 10405 10405 10405 10405 10404 10403 10402 10401 10401 10399 10397 10395 10395 10395 10393 10390 10387 10385 10383 10380 10378 10376 10374 10371 10369 10366 10363 10360 10357 10354 10350 10348 10345 10343 10340 10336 10333 10330 10327 10324 10320 10317 10314 10310 10306 10302 10298 10295 10291 10288 10284 10279 10275 10270 10265 10261 10256 10251 10247 10242 10239 10235 10231 10227 10223 10220 10216 10213 10209 10205 10201 10197 10194 10190 10187 10184 10182 10179 10176 10172 10169
10382 10385 10387 10388 10389 10390 10390 10391 10391 10391 10390 10389 10387 10387 10386 10385 10384 10383 10383 10382 10380 10377 10375 10372 10369 10367 10365 10364 10362 10359 10357 10354 10351 10348 10344 10341 10338 10336 10333 10330 10326 10323 10320 10317 10314 10311 10308 10305 10302 10299 10295 10291 10287 10284 10280 10276 10272 10267 10262 10257 10252 10248 10243 10238 10234 10230 10227 10223 10219 10215 10211 10208 10204 10200 10196 10192 10188 10184 10180 10177 10174 10171 10168 10166 10164 10160 10157
10370 10372 10373 10373 10374 10376 10377 10378 10377 10376 10375 10374 10373 10373 10373 10373 10372 10371 10371 10370 10368 10365 10362 10359 10357 10355 10354 10352 10349 10347 10345 10342 10339 10336 10333 10330 10327 10324 10321 10318 10314 10311 10308 10305 10301 10299 10296 10293 10290 10287 10284 10280 10276 10272 10268 10264 10259 10254 10249 10244 10239 10235 10231 10227 10223 10219 10215 10211 10207 10203 10199 10195 10192 10188 10183 10179 10175 10172 10168 10164 10161 10159 10156 10154 10152 10149 10147
10357 10358 10360 10362 10363 10364 10364 10364 10363 10362 10362 10361 10361 10360 10361 10361 10360 10359 10358 10357 10355 10352 10350 10348 10347 10345 10343 10340 10337 10335 10332 10329 10326 10324 10322 10319 10316 10313 10310 10307 10304 10301 10297 10294 10290 10287 10285 10282 10279 10277 10273 10268 10264 10260 10255 10251 10246 10241 10236 10232 10227 10223 10219 10215 10212 10208 10204 10199 10195 10190 10187 10183 10179 10174 10170 10166 10163 10159 10156 10153 10150 10148 10146 10144 10141 10139 10137
10346 10348 10350 10352 10353 10352 10352 10352 10351 10351 10350 10349 10348 10348 10348 10348 10347 10346 10345 10343 10342 10340 10339 10338 10336 10333 10331 10328 10326 10323 10321 10318 10314 10311 10309 10306 10304 10302 10299 10296 10293 10290 10287 10284 10280 10277 10275 10272 10269 10266 10262 10257 10253 10248 10243 10238 10233 10229 10224 10221 10217 10213 10209 10205 10201 10197 10192 10188 10183 10178 10174 10171 10166 10162 10158 10155 10151 10147 10145 10142 10140 10138 10136 10134 10131 10129 10127
10336 10338 10340 10341 10342 10341 10341 10341 10340 10339 10338 10338 10337 10336 10336 10336 10335 10335 10333 10332 10331 10330 10329 10327 10324 10322 10320 10318 10315 10313 10310 10307 10304 10301 10297 10295 10292 10290 10287 10284 10281 10278 10275 10272 10270 10266 10263 10260 10257 10253 10249 10245 10241 10236 10231 10226 10221 10217 10213 10210 10206 10202 10197 10193 10188 10184 10180 10176 10172 10167 10163 10159 10156 10152 10148 10145 10141 10137 10134 10132 10130 10128 10126 10124 10122 10120 10119
10326 10327 10329 10330 10331 10330 10330 10329 10328 10328 10328 10327 10325 10325 10324 10324 10324 10323 10322 10321 10320 10319 10317 10315 10313 10311 10309 10307 10304 10302 10300 10297 10294 10291 10287 10284 10282 10279 10276 10273 10270 10267 10264 10261 10258 10255 10251 10248 10245 10241 10237 10233 10229 10224 10220 10215 10210 10206 10203 10200 10195 10191 10186 10181 10176 10172 10167 10164 10160 10156 10152 10149 10146 10142 10139 10135 10131 10128 10126 10124 10122 10119 10117 10116 10114 10112 10111
10315 10317 10318 10319 10319 10319 10319 10319 10318 10317 10316 10315 10315 10314 10314 10314 10313 10312 10311 10310 10309 10308 10306 10304 10303 10300 10297 10295 10293 10291 10289 10287 10283 10280 10277 10274 10271 10269 10266 10263 10260 10257 10254 10250 10247 10243 10240 10237 10233 10229 10225 10221 10217 10213 10208 10204 10200 10196 10193 10188 10184 10179 10174 10170 10166 10162 10157 10153 10149 10146 10143 10139 10136 10133 10130 10126 10123 10120 10118 10116 10113 10110 10109 10108 10106 10104 10103